Torna al catalogo

FENGYUN 1C DEB

LostSSO
NORAD 38802·DEBRIS·🇨🇳 China

Lanciato May 10, 1999 da Taiyuan Satellite Launch Center

Loading…

Prossimi Passaggi (prossime 24 ore)

TLE

ObsoletoSource: Space-Track

Epoca: Apr 16, 2017, 09:31 UTC

1 38802U 99025EUS 17106.39671985  .00000208  00000-0  11022-3 0  9998
2 38802  98.5701 167.6672 0046104  32.0447 328.4115 14.13138297412980

Traccia FENGYUN 1C DEB in tempo reale con AllMySat

Download on the App Store